RH
57 57 56 55 53 51 48 45 43 40 37 34 31 28 26 24 23 22 22 21 20 19 18 17 16 15 14 13 13 13 13 12 11 10 9 9 8 8 8 8 8 8 8 8 8 8 8 7 6 6 7 7 7 7 7 7 6 5 6 7 8 10 10 9 9 10 9 12 17 18 12 13 21 21 19 24 29 29 32 36 39 41 42 43 41 40 41 40
61 60 59 58 56 54 52 49 46 43 40 37 34 31 29 27 26 25 24 23 22 21 20 19 18 17 16 15 15 14 14 13 12 11 10 10 9 9 9 9 9 9 9 9 9 9 9 8 7 7 9 9 8 9 8 8 7 7 7 7 10 11 11 10 9 10 11 14 20 23 19 17 24 28 22 22 26 24 28 35 38 40 39 37 37 38 39 37
64 64 63 62 60 57 55 53 51 48 45 41 38 35 32 30 28 27 26 25 24 23 22 21 20 19 18 17 16 15 14 13 13 12 11 10 10 10 10 10 9 9 9 10 10 10 9 9 9 10 11 11 11 10 10 10 9 9 8 9 12 13 12 11 10 11 11 16 24 27 25 24 23 24 21 18 18 17 23 31 34 34 32 33 35 37 38 37
67 67 66 65 64 62 60 58 56 52 49 46 42 39 36 33 31 29 28 27 26 25 24 23 22 20 19 18 17 16 15 14 13 12 11 11 10 10 10 10 10 10 10 10 11 11 10 11 12 12 13 14 13 11 12 13 11 10 10 12 14 13 13 13 12 11 11 14 22 26 25 29 26 17 14 12 12 14 19 23 26 29 31 32 32 35 36 36
70 69 69 68 67 65 64 61 58 55 51 48 45 43 40 38 35 32 30 28 28 27 26 25 23 21 19 19 18 17 15 13 12 11 11 10 10 10 10 10 10 10 10 11 11 11 11 12 13 14 15 16 14 13 15 15 12 11 12 15 16 14 15 16 14 13 12 11 15 20 21 24 23 16 11 10 12 16 19 22 25 30 32 29 28 29 32 33
73 73 71 71 70 68 65 63 59 56 53 49 46 44 42 41 40 37 33 30 29 28 27 26 23 20 19 19 18 16 14 12 11 11 10 10 10 10 9 10 10 10 10 10 10 11 12 13 14 16 16 16 15 16 17 16 13 13 15 17 17 16 17 17 16 15 14 12 12 15 16 16 17 16 12 13 18 20 22 26 29 32 30 24 22 23 27 29
78 77 75 73 72 70 68 65 62 58 55 51 48 45 43 43 42 40 38 33 31 30 28 25 21 20 19 18 16 14 13 11 11 10 10 9 9 9 9 9 9 9 9 9 10 10 11 13 15 16 17 17 17 18 18 16 15 15 17 17 18 17 17 18 17 16 14 13 13 14 15 15 14 15 15 19 22 20 21 28 33 34 26 18 18 20 23 23
82 80 78 77 76 74 71 68 65 61 58 54 50 47 45 44 42 42 41 36 33 31 26 22 20 20 18 15 13 13 12 11 11 10 9 9 8 8 8 8 8 9 9 9 9 9 11 12 14 16 18 18 18 18 17 15 15 16 17 17 18 16 16 18 17 16 16 15 15 14 14 14 14 14 17 20 19 17 20 25 29 26 19 17 18 19 20 20
79 82 81 80 79 77 74 72 69 65 61 57 54 51 48 46 44 43 41 38 35 29 23 20 19 18 16 13 13 13 12 12 11 10 10 9 8 8 8 7 8 8 8 9 9 9 10 11 14 15 16 17 17 17 16 15 15 16 18 17 17 17 16 17 17 16 16 15 15 15 14 14 15 15 17 18 17 19 20 21 21 18 16 17 18 19 20 20
68 80 81 80 79 78 76 74 71 68 65 61 57 53 51 48 46 43 41 40 34 25 21 19 18 16 14 13 13 13 13 12 11 11 10 9 9 8 7 7 7 8 8 9 10 9 10 11 12 14 15 16 16 17 17 16 16 17 18 18 18 18 17 17 17 18 17 17 17 16 16 16 16 16 16 17 19 19 21 21 19 17 18 18 19 20 19 19
58 75 80 80 79 78 76 75 73 70 67 63 58 54 51 49 46 44 42 38 30 23 20 18 17 15 13 13 13 13 12 12 12 11 11 10 10 9 8 7 7 8 8 9 10 10 11 11 12 13 14 15 16 17 16 17 17 17 18 18 19 19 17 17 18 19 19 19 19 18 18 17 17 17 17 18 20 20 20 20 18 18 18 19 20 19 21 23
55 70 78 80 78 76 75 74 73 70 66 61 58 55 52 49 47 44 39 32 25 21 19 17 15 13 13 13 13 13 13 12 12 12 12 11 11 10 9 8 8 8 8 9 10 11 12 12 13 14 14 15 16 16 16 17 17 17 18 18 18 18 18 18 19 20 20 19 19 20 18 17 16 16 17 18 18 19 19 19 19 19 19 19 21 23 27 28
62 69 76 78 77 75 75 74 73 70 65 61 57 55 52 49 45 39 32 26 22 19 18 16 15 13 13 13 13 13 13 13 13 13 13 13 12 11 10 9 8 9 9 10 10 10 11 12 13 14 14 15 15 15 16 16 16 16 16 17 17 17 18 19 19 19 18 17 17 17 16 15 15 14 15 16 16 17 18 18 18 18 19 19 23 29 30 26
66 70 74 75 75 75 74 74 72 68 64 60 57 54 50 44 38 32 27 23 20 18 17 15 14 13 14 14 14 15 14 14 15 15 15 14 14 13 11 10 9 9 9 10 10 10 10 11 12 12 13 14 14 15 15 15 15 15 15 16 16 17 18 18 18 16 13 12 12 13 13 13 13 13 13 15 15 17 17 18 18 18 18 18 23 28 28 28
64 69 72 72 73 73 73 71 68 65 61 57 54 51 45 38 31 26 23 21 19 18 17 15 14 14 14 14 14 16 16 15 16 18 18 17 16 15 14 12 10 9 9 9 10 10 10 11 11 11 12 12 13 14 14 15 15 15 16 16 16 17 16 16 15 13 10 9 10 10 12 13 12 13 14 15 15 16 17 17 18 18 19 21 25 28 31 38
53 57 60 62 63 66 68 68 64 60 56 52 49 45 40 32 27 24 22 20 19 18 17 16 16 15 15 15 15 17 18 18 18 19 19 19 18 18 16 14 12 11 10 9 9 9 10 10 10 11 11 11 12 12 13 14 15 15 16 15 15 14 13 14 13 11 9 9 12 12 12 13 12 13 13 14 15 16 17 18 22 25 30 32 31 32 36 43
38 41 43 45 47 51 57 59 58 54 50 46 43 40 36 29 25 24 22 20 19 19 18 17 17 16 16 16 16 18 20 20 20 20 20 20 19 19 18 16 14 13 11 10 9 9 9 9 9 9 10 10 10 11 12 13 14 14 14 14 13 12 12 12 14 17 17 18 20 18 17 17 13 13 14 14 17 19 22 27 33 34 41 47 40 36 36 39
33 33 34 35 37 40 44 48 49 48 45 41 38 35 32 28 25 24 22 20 19 19 19 19 18 17 18 18 18 19 21 21 22 22 22 21 20 19 18 18 16 15 13 11 11 9 9 9 9 9 9 9 9 9 10 10 12 12 12 12 12 11 11 15 23 29 29 31 31 24 24 23 16 15 16 18 23 27 31 37 41 39 48 58 51 41 37 37
39 37 37 37 36 35 37 40 43 44 42 37 34 32 30 27 27 26 23 19 19 20 20 20 20 19 19 20 20 21 21 22 23 23 23 22 21 20 18 18 17 16 15 13 12 11 10 9 8 9 9 9 9 9 9 9 10 10 10 11 11 10 12 17 28 37 39 40 41 37 33 28 22 22 24 28 33 40 43 40 41 51 63 68 56 46 44 42
49 46 45 46 45 42 38 36 37 39 39 36 32 31 30 29 28 26 24 20 18 19 20 21 21 21 20 20 21 22 22 22 23 24 24 24 22 20 19 17 17 17 16 15 14 12 11 11 9 9 9 9 9 9 9 9 9 9 9 10 9 10 16 22 32 47 51 47 48 47 41 32 29 32 35 38 42 46 44 38 45 64 76 68 53 50 53 48
60 55 51 51 52 53 49 44 39 36 36 35 34 33 31 28 27 25 23 20 19 18 19 21 22 22 21 21 21 21 21 22 23 24 24 24 23 22 19 18 17 17 17 16 15 14 13 12 11 11 10 9 9 9 9 9 9 9 9 11 11 14 22 27 38 57 59 54 58 55 48 39 32 36 41 45 51 51 45 44 54 66 69 62 53 54 57 52
67 64 59 55 54 55 56 55 51 44 38 35 34 32 29 27 25 23 22 20 18 17 18 19 20 21 21 21 21 21 22 23 24 24 25 25 24 23 21 19 17 16 16 16 16 15 14 13 13 12 12 11 10 10 9 9 9 9 10 14 16 18 26 30 41 62 63 59 65 63 58 49 39 47 58 60 63 62 55 54 61 65 63 62 59 54 51 51
63 65 65 61 57 55 55 56 57 55 49 43 40 34 27 27 27 25 23 20 18 18 18 19 20 21 20 21 21 21 23 24 24 25 25 25 24 24 23 20 19 17 16 17 17 16 15 15 14 13 13 13 12 12 11 11 12 11 13 21 25 25 34 39 45 65 72 66 66 67 67 57 48 62 76 74 70 66 61 59 63 68 66 64 61 55 51 50
57 60 64 65 63 60 57 56 55 56 55 54 53 48 38 31 29 27 24 21 20 19 19 20 21 22 21 21 21 21 24 25 25 26 25 26 24 23 23 22 21 19 18 18 17 17 16 16 15 14 14 14 13 13 12 13 15 17 21 28 31 31 41 47 47 63 77 77 70 67 71 63 53 68 84 82 75 66 61 60 65 73 75 71 64 59 56 51
55 56 58 61 65 65 64 62 57 53 54 53 53 56 55 48 40 33 27 22 21 21 21 21 22 24 23 22 22 22 24 26 27 28 27 26 24 23 23 22 21 19 18 18 18 18 17 16 16 16 15 15 14 14 14 14 17 24 33 38 37 36 44 52 57 66 76 83 78 69 74 71 59 65 80 84 78 67 62 63 66 73 80 79 70 63 58 51
53 56 56 57 59 62 63 64 62 60 55 46 43 48 53 57 55 48 38 28 22 22 23 23 25 26 25 23 23 24 24 27 29 30 29 29 28 27 25 23 21 19 18 18 17 18 17 17 17 17 17 16 15 15 14 15 17 24 35 44 48 45 46 53 63 73 78 84 84 76 77 78 68 65 71 78 80 72 67 70 71 74 80 82 78 70 64 56
50 55 58 57 56 56 56 56 58 63 61 47 38 41 43 50 58 59 56 46 35 29 27 27 28 30 32 30 27 27 27 28 29 30 32 31 31 31 28 23 20 19 19 17 17 18 17 17 18 18 18 18 17 17 17 16 19 24 29 38 51 56 54 55 61 74 84 86 88 85 79 78 78 76 71 71 76 73 71 76 78 78 77 80 83 76 69 62
46 51 56 60 58 55 52 52 51 56 64 59 48 42 39 42 48 53 59 56 49 45 42 39 37 35 38 39 39 41 43 40 36 35 36 35 34 32 29 25 22 21 20 19 18 18 19 18 19 21 20 21 21 20 20 19 20 28 32 34 44 56 66 69 66 75 85 87 92 95 88 82 81 81 76 72 72 72 72 75 76 75 73 77 83 78 72 67
39 45 51 57 62 61 56 55 53 52 59 65 63 53 41 37 38 41 47 49 52 60 61 60 60 55 48 44 45 50 52 50 47 46 44 41 40 35 29 28 26 23 22 22 20 20 23 23 22 23 23 25 29 28 26 25 26 32 38 40 40 47 65 78 81 83 84 86 92 95 94 90 84 81 79 75 72 72 73 72 70 71 71 74 78 76 73 72
28 36 44 49 57 64 65 62 59 56 55 58 65 65 53 41 35 35 38 38 45 59 66 70 75 76 70 60 54 51 51 52 53 54 52 49 47 41 36 33 31 28 26 25 22 22 26 28 28 30 32 32 33 34 31 30 36 39 42 45 40 40 51 68 85 93 91 89 89 88 89 88 84 78 66 57 59 68 75 76 73 69 67 68 71 73 77 79
18 25 34 42 47 55 65 68 65 62 58 54 57 65 66 56 44 38 35 32 39 50 57 61 64 73 83 83 75 64 59 60 58 55 52 51 51 48 44 42 39 34 28 26 25 25 28 33 36 39 41 40 37 38 35 36 46 51 51 50 43 40 42 50 70 87 95 95 89 85 83 81 80 66 41 29 34 49 66 79 81 75 70 71 75 79 83 78
11 16 25 34 40 45 53 61 65 67 66 60 54 57 64 65 59 51 43 40 46 53 55 55 54 59 71 79 86 83 74 71 68 62 57 52 54 56 55 54 49 42 37 34 36 38 39 42 45 47 49 45 43 48 45 43 52 59 58 54 47 43 40 39 47 58 76 89 91 90 82 78 74 50 24 18 20 29 46 63 77 81 80 79 81 85 80 70
7 9 16 24 32 37 41 45 53 64 71 70 62 55 55 59 61 60 58 57 61 65 63 58 55 55 54 60 81 93 90 87 84 79 72 61 60 67 70 67 59 51 49 48 49 52 53 54 53 52 54 49 45 54 58 59 65 66 61 57 53 47 42 39 37 35 44 58 71 82 82 82 75 45 23 21 22 31 43 51 62 73 78 78 77 77 73 71
12 7 8 13 20 25 30 34 40 50 62 70 70 64 57 56 55 56 60 62 65 70 68 66 67 66 60 57 68 84 93 98 96 89 80 67 62 67 70 69 65 60 56 55 58 56 53 60 62 56 60 62 61 67 77 83 86 79 68 62 60 54 46 43 42 38 36 36 41 52 59 63 54 37 30 29 30 39 49 55 62 66 66 66 67 69 72 77
22 15 9 7 10 14 18 23 29 35 44 56 66 68 64 61 56 49 50 54 60 66 66 68 73 77 79 75 74 81 90 99 98 87 78 67 63 65 64 62 64 64 60 58 60 55 50 59 64 65 70 71 73 84 90 91 93 93 84 72 69 65 55 52 51 46 44 43 41 44 48 47 41 40 43 41 43 49 52 57 62 62 61 60 62 66 68 70
34 25 17 10 8 9 10 13 18 23 28 36 47 54 59 66 60 44 41 49 57 63 64 66 69 78 90 92 92 93 92 96 96 87 79 71 66 66 63 63 66 65 62 62 62 58 55 59 63 73 79 72 75 90 91 83 86 96 95 82 78 76 67 63 64 58 53 52 51 51 51 47 40 42 46 45 49 53 55 57 57 58 60 62 60 57 57 59
47 35 25 18 13 10 7 7 10 13 17 21 29 36 44 61 63 46 38 46 56 63 69 71 70 77 86 89 95 96 91 95 95 90 86 77 70 67 65 67 66 65 69 69 69 67 64 68 73 79 84 81 85 95 91 85 85 89 92 87 83 84 77 71 74 72 67 64 62 61 62 56 44 38 40 43 46 46 46 52 62 71 76 78 74 63 61 64
59 50 38 28 21 17 12 8 7 8 11 12 17 23 29 44 59 54 41 44 55 63 73 81 81 82 87 89 93 92 90 95 93 89 87 81 75 73 75 75 66 70 84 83 80 78 72 79 85 83 88 93 95 94 89 90 92 90 88 82 80 86 84 77 76 74 70 67 63 63 71 73 62 48 42 44 51 57 57 62 75 86 86 87 85 76 73 79
59 60 53 40 27 22 20 16 10 7 7 8 9 13 16 25 44 55 49 48 58 65 74 87 90 90 93 93 91 89 91 94 91 87 87 84 84 83 85 87 77 79 95 94 86 81 74 80 86 86 94 100 98 95 90 86 90 93 89 81 77 84 89 83 78 73 69 68 64 61 66 72 72 69 62 59 64 71 73 76 83 87 84 81 80 77 73 78
40 53 60 54 37 25 23 23 20 15 10 7 7 8 10 13 27 47 53 51 58 67 75 85 91 95 98 95 87 83 90 98 96 91 90 90 94 94 94 96 91 87 93 95 87 76 70 75 83 91 100 101 100 100 97 91 87 86 87 85 79 81 86 86 83 78 72 71 67 62 58 57 59 63 62 58 59 64 67 70 73 75 77 75 69 66 64 70
15 30 48 60 53 34 24 23 24 24 21 15 10 8 8 8 14 32 48 52 53 60 70 78 83 90 97 98 91 81 84 99 103 94 90 93 98 100 100 98 94 90 92 96 87 74 67 66 74 90 101 102 101 100 101 98 88 81 86 89 84 83 84 82 80 78 76 75 72 64 56 49 44 43 42 38 37 42 50 58 64 64 65 70 72 71 72 77
4 10 24 49 63 52 31 22 22 24 25 24 18 12 9 8 9 19 37 50 52 53 61 70 76 82 88 97 99 90 84 92 100 96 91 95 98 97 96 90 85 86 93 100 95 81 72 65 68 86 99 101 101 101 102 97 85 81 91 96 91 89 83 73 70 71 73 77 72 63 57 51 45 42 40 37 32 29 33 44 57 65 71 82 88 87 89 88
5 4 7 25 54 64 48 27 21 22 21 23 24 18 12 9 9 13 23 40 50 52 56 63 71 77 84 94 102 102 93 86 87 90 92 93 91 89 89 84 81 84 87 94 98 90 82 76 76 88 100 101 99 96 96 96 89 86 95 99 97 92 80 69 68 67 71 76 72 66 60 51 46 44 39 42 46 43 41 40 42 51 66 79 83 84 90 90
5 5 4 11 31 59 69 51 31 24 20 19 21 21 18 12 8 11 15 24 38 50 55 58 64 70 78 91 101 103 100 91 80 81 92 99 91 84 87 86 86 89 86 86 92 92 90 90 89 94 99 98 93 88 87 96 99 95 95 95 92 85 73 66 66 63 65 71 68 62 54 41 38 38 33 38 48 54 59 59 51 48 54 63 69 72 77 80
7 3 9 25 29 39 64 70 53 38 26 21 21 20 20 16 10 10 11 12 25 42 49 49 53 61 66 79 96 102 102 100 87 74 81 100 101 93 91 87 87 93 91 87 88 86 88 92 92 95 97 93 91 88 85 91 100 101 99 93 87 82 74 72 72 63 59 60 53 43 35 27 26 27 27 32 40 48 57 61 61 59 55 53 53 52 52 61
9 2 8 43 62 55 64 78 74 60 43 31 28 26 24 21 16 13 12 10 16 31 42 41 41 50 57 64 83 99 101 102 97 81 76 90 102 102 96 89 86 87 85 88 90 85 85 91 89 89 92 91 91 92 90 91 96 98 95 90 86 86 82 75 69 58 49 44 38 32 26 22 20 20 21 24 27 31 34 34 39 43 43 41 38 34 33 39
9 7 3 35 77 85 86 94 93 85 71 55 49 43 35 27 20 17 16 13 12 19 32 38 34 38 48 54 67 90 101 102 100 93 88 92 99 101 96 90 89 90 89 93 95 88 88 93 90 87 90 92 92 96 98 96 93 88 82 75 68 66 63 56 50 46 41 38 35 32 28 26 24 21 21 21 19 19 18 17 19 21 25 31 35 38 37 35
7 10 6 27 73 94 94 99 99 95 91 84 76 66 51 35 23 20 19 17 15 15 22 33 35 33 37 42 50 67 82 90 91 89 88 93 99 101 97 89 88 90 92 94 94 91 92 95 89 85 92 96 96 97 98 96 90 83 80 77 70 63 58 52 47 44 41 40 40 37 31 29 28 26 24 23 20 18 17 16 16 15 17 22 30 40 46 44
8 12 10 28 74 101 101 100 96 95 100 101 95 86 72 51 32 24 23 19 17 17 17 25 33 34 35 37 40 46 56 71 84 86 82 84 91 97 100 97 90 86 86 88 87 83 85 91 91 89 94 97 96 91 82 72 63 56 56 60 61 61 59 55 53 49 45 43 41 39 36 32 29 27 27 26 24 23 22 21 21 19 19 18 19 24 29 32
10 13 15 27 63 93 101 102 99 98 103 104 102 100 93 75 51 37 34 29 21 18 19 21 27 33 38 38 39 44 52 69 88 95 90 88 91 94 98 100 98 95 94 96 93 83 79 86 91 92 91 86 79 70 56 44 40 39 40 40 39 41 43 44 47 49 47 45 44 43 42 37 33 30 28 26 26 27 28 30 32 32 30 26 22 18 18 20
12 12 16 30 60 87 98 100 100 101 102 101 101 102 102 94 76 57 47 40 30 23 20 18 21 28 36 42 44 45 48 61 77 84 86 91 97 100 101 101 101 97 91 90 90 87 84 85 83 78 73 65 57 50 42 37 36 35 35 34 32 31 31 33 40 44 45 47 56 65 63 52 44 42 41 40 38 38 39 38 38 38 37 35 32 27 23 20
16 13 12 23 52 83 100 102 100 99 100 100 101 100 101 101 93 78 64 49 38 30 24 21 20 21 28 38 46 47 47 53 61 63 64 69 75 84 94 93 85 80 80 83 85 85 82 80 75 67 58 51 48 47 43 39 35 31 30 28 25 24 23 24 29 36 39 42 55 75 84 78 71 69 72 74 71 68 65 59 54 47 37 31 28 27 27 24
Wind_Speed
23 23 23 23 23 23 23 23 23 23 24 24 24 24 24 24 24 25 25 25 26 26 26 27 27 28 29 29 29 30 30 30 31 31 32 32 32 32 31 31 31 31 30 30 31 31 30 31 31 31 30 29 29 29 29 29 29 29 27 24 21 18 18 19 18 18 23 28 31 32 33 37 38 38 40 39 38 37 36 34 33 32 31 31 31 32 34 35
24 24 24 24 23 23 23 23 23 23 23 23 23 24 24 24 24 25 25 25 25 26 26 26 27 28 28 29 29 29 30 30 30 31 31 31 31 31 30 30 30 31 30 30 30 30 30 30 30 29 28 28 28 28 28 28 28 28 26 24 18 15 18 21 20 20 24 29 34 35 35 38 38 37 38 39 38 38 37 35 34 33 33 34 34 33 33 33
25 25 25 24 24 24 24 24 24 24 24 24 24 24 24 24 24 24 24 25 25 25 25 26 26 27 28 28 28 29 29 29 29 30 29 30 29 29 29 28 29 29 29 29 29 29 30 29 28 27 27 26 26 27 26 26 27 27 26 22 16 17 20 21 21 22 25 31 36 37 38 39 40 39 39 39 39 40 40 38 36 35 35 34 33 32 31 30
26 26 26 25 25 25 25 25 26 26 26 25 25 25 24 24 24 24 24 24 25 25 25 25 26 26 27 27 27 27 28 28 28 28 28 28 28 28 27 27 27 28 28 28 28 29 29 28 27 26 26 25 26 27 25 24 26 27 25 20 18 19 20 20 22 23 26 32 36 38 39 40 41 40 38 37 37 39 40 39 37 35 33 31 30 30 29 29
27 27 27 26 26 26 27 27 27 27 27 27 27 26 25 24 24 23 24 24 24 24 24 25 25 26 26 26 26 26 27 28 27 27 27 27 27 27 27 26 26 27 27 27 27 28 28 27 26 26 25 25 26 26 24 24 27 27 23 19 19 19 18 20 22 23 25 29 34 38 39 40 40 39 35 32 30 31 33 33 33 31 28 27 28 29 29 29
28 27 27 26 26 26 27 27 27 27 27 27 27 27 26 25 24 24 23 24 24 24 24 25 25 25 25 24 25 25 26 26 26 25 26 26 26 26 26 26 26 26 26 27 27 27 27 27 26 25 25 25 25 25 25 27 28 27 23 20 19 19 19 21 23 23 25 27 30 35 37 36 36 35 31 26 24 24 26 27 28 26 25 25 26 28 28 27
28 28 27 26 26 26 26 27 27 27 27 26 27 27 26 26 25 24 23 23 24 24 24 25 25 25 24 24 24 24 25 25 23 23 24 24 24 24 25 25 25 25 26 26 27 26 26 26 26 25 25 26 26 27 28 30 29 27 24 22 21 21 21 22 24 25 26 26 28 30 33 32 30 29 26 24 25 24 24 25 25 25 25 23 22 23 23 22
28 28 27 27 26 26 27 27 27 27 26 26 26 26 26 25 25 24 24 24 24 24 25 25 25 24 23 23 22 23 23 23 22 22 22 22 22 23 23 24 24 25 25 25 26 26 26 26 27 27 27 28 28 30 30 31 30 28 26 24 24 24 23 23 25 26 26 26 27 27 27 27 26 25 24 25 26 25 23 23 23 24 23 20 19 19 18 19
28 28 27 27 26 26 27 27 26 26 26 25 25 25 25 25 25 24 24 24 24 25 25 25 24 23 23 22 21 21 21 20 21 20 20 20 20 21 22 22 23 23 24 24 24 25 26 27 28 28 29 28 28 29 30 30 29 27 26 26 25 24 23 23 24 25 25 26 27 25 23 23 23 23 23 24 25 24 23 23 23 22 20 18 18 18 18 19
27 27 27 26 26 26 26 25 25 25 24 24 24 24 24 24 24 24 24 24 24 25 25 24 23 22 22 21 21 20 20 20 19 18 18 18 18 18 19 20 21 22 22 23 23 25 27 28 28 28 28 27 27 28 28 28 28 27 27 26 24 23 23 23 23 25 26 26 26 24 22 22 20 19 20 21 23 25 23 23 24 22 19 18 19 19 20 20
25 26 25 25 25 25 25 24 24 23 23 23 23 23 23 23 24 24 24 24 25 25 24 23 22 22 21 20 20 19 19 19 18 17 17 16 16 16 17 18 19 20 20 22 23 24 25 26 26 26 27 27 27 27 27 27 27 27 27 26 25 25 23 21 22 25 27 28 28 26 25 24 19 18 20 23 26 26 24 23 23 21 19 19 20 22 21 20
23 24 24 24 24 24 24 23 23 23 22 22 23 23 23 23 23 23 24 24 25 24 23 22 22 21 21 20 20 18 19 18 17 16 16 15 15 14 15 16 17 18 19 20 21 22 23 24 24 24 25 25 26 27 26 27 27 28 27 27 27 26 23 22 23 26 27 29 30 29 29 24 19 21 25 28 30 27 23 23 23 21 19 20 21 21 19 19
21 22 22 23 23 23 23 23 22 22 22 22 22 22 23 23 23 24 24 24 24 24 23 22 21 20 21 20 18 18 19 18 16 16 15 15 14 13 14 14 15 16 18 19 20 22 23 23 23 23 23 23 24 26 26 26 27 28 27 26 26 26 25 25 27 27 27 29 30 31 30 23 21 25 27 29 29 24 22 23 23 21 21 22 21 20 19 19
20 21 21 22 22 22 22 22 22 22 22 22 22 22 23 23 23 24 24 24 23 23 22 21 20 20 20 20 17 17 19 17 16 15 15 15 14 13 13 14 15 16 17 19 20 22 23 22 23 23 22 22 23 25 26 26 26 25 25 26 26 26 27 28 29 28 27 27 28 30 28 23 23 25 27 29 28 23 22 24 24 22 23 23 22 21 20 19
20 21 21 21 22 22 22 22 23 22 22 22 22 22 23 23 23 23 23 23 23 22 21 20 20 20 20 20 18 17 18 17 16 15 15 15 15 14 14 14 15 16 17 17 18 20 21 21 21 22 22 23 24 25 25 26 25 23 24 26 26 26 26 26 26 26 27 28 28 27 25 23 24 25 27 29 28 25 25 25 24 22 23 22 22 21 19 17
20 20 21 21 22 22 22 23 23 23 23 23 23 23 23 23 23 23 23 23 22 21 20 20 20 20 20 19 18 17 17 17 16 16 15 16 16 16 15 15 16 16 16 17 17 18 18 19 19 20 22 24 25 24 24 24 24 24 26 26 25 24 23 22 23 24 25 25 25 25 24 24 25 26 29 29 28 26 25 24 22 20 21 22 21 20 18 16
19 19 20 20 21 22 22 23 23 23 23 23 23 23 23 23 23 23 23 23 22 21 20 20 19 19 20 19 18 17 17 17 17 17 16 16 16 16 16 17 16 16 16 17 17 17 17 18 18 19 20 21 22 22 22 23 24 25 26 25 24 23 22 21 20 19 19 19 19 22 22 23 25 27 28 28 27 25 23 22 19 20 21 20 20 20 18 16
17 18 18 19 20 21 21 22 23 23 23 23 23 23 23 24 24 24 24 24 23 21 21 20 19 19 19 18 17 17 16 17 17 17 17 16 16 16 17 17 17 17 16 16 16 17 17 17 17 18 17 17 19 20 21 23 25 25 24 23 22 23 22 20 17 17 18 17 18 20 20 21 24 25 25 26 25 22 21 20 19 19 17 16 18 18 16 15
17 17 18 18 19 19 20 21 22 22 23 23 23 24 24 24 24 24 24 25 24 23 22 21 20 20 19 18 17 16 16 17 17 17 17 17 17 17 18 18 18 17 17 17 17 17 17 17 17 17 16 16 17 19 21 23 24 23 22 21 22 24 23 21 19 19 19 17 16 18 19 20 21 21 22 22 21 19 19 19 18 14 11 14 17 16 13 14
17 17 17 18 19 20 20 20 21 22 23 23 24 24 24 24 24 24 24 25 26 25 24 22 21 21 21 19 18 17 18 18 18 18 18 18 17 17 17 18 18 17 18 18 17 16 16 15 16 17 18 19 19 21 23 23 23 22 22 22 24 25 24 23 22 20 19 18 16 17 19 19 19 18 16 16 17 18 18 18 16 10 10 15 17 13 10 11
17 17 17 18 19 20 20 21 21 21 22 23 23 23 23 23 24 24 24 26 26 26 25 24 22 22 22 20 19 18 19 19 19 18 18 18 18 18 17 17 17 18 19 18 16 15 16 16 17 18 19 20 20 22 23 22 22 23 23 23 25 25 25 25 22 19 19 19 17 16 17 19 19 18 15 14 15 16 16 16 13 11 12 16 16 13 10 11
17 17 18 18 19 19 20 20 21 22 22 22 22 22 21 22 23 24 25 26 26 27 26 25 24 24 24 22 21 20 19 19 20 19 19 19 20 19 18 17 18 19 19 18 16 16 18 19 20 20 20 19 19 21 21 20 20 21 22 23 26 26 26 25 21 19 20 20 18 17 16 16 18 16 15 16 16 15 16 16 15 14 14 15 16 15 12 12
18 17 18 18 19 20 20 20 20 21 22 22 21 20 20 22 23 24 25 25 25 27 26 25 26 26 25 24 22 21 20 21 21 20 20 20 20 20 19 19 20 20 18 17 17 19 20 21 22 22 21 20 20 22 22 20 18 18 21 24 27 28 26 25 22 19 20 21 21 21 18 16 17 16 17 18 19 17 18 19 18 17 16 16 17 17 16 14
21 20 19 18 19 19 20 20 20 20 20 20 20 21 21 22 24 25 26 24 25 27 25 24 25 25 26 25 24 22 21 22 22 21 21 20 21 21 21 22 22 20 19 19 20 22 22 22 23 23 23 23 23 23 23 21 18 17 21 26 29 29 27 26 24 22 22 22 23 23 21 18 18 19 19 21 20 19 20 21 20 19 19 20 20 20 20 18
23 22 21 21 20 20 20 20 21 20 19 18 19 21 23 25 25 25 25 24 24 26 25 23 23 25 27 27 24 22 21 21 22 22 21 21 21 22 23 24 23 22 22 22 22 22 22 22 23 24 23 23 23 24 24 22 21 20 22 27 31 31 29 27 25 24 25 25 25 24 22 21 20 21 22 22 21 21 22 23 21 21 22 22 23 23 23 21
23 24 24 23 22 22 21 20 20 19 19 18 18 21 23 26 26 25 25 24 22 24 23 21 23 25 28 27 23 23 23 22 23 24 23 23 23 23 25 25 24 24 25 25 25 24 24 24 24 24 24 24 24 25 25 23 23 23 23 27 31 32 32 31 28 27 27 28 28 26 25 24 23 22 24 24 24 23 24 25 24 24 24 24 25 26 26 24
23 23 24 25 25 24 23 22 21 19 18 18 19 22 23 24 25 25 26 25 22 23 22 21 23 25 26 26 25 25 23 22 24 25 24 24 24 25 25 25 25 26 27 27 26 26 26 26 26 25 24 23 24 25 25 25 25 25 24 26 30 32 33 33 32 30 30 31 32 30 29 27 25 24 26 27 27 27 27 28 27 26 27 27 27 28 29 27
24 23 23 24 25 26 25 24 22 20 19 20 21 23 23 23 24 23 24 23 21 22 22 22 23 24 26 26 25 23 23 24 26 25 24 25 25 26 26 25 25 27 29 28 27 26 27 27 26 25 25 24 25 26 27 27 26 25 25 26 28 31 34 34 33 32 32 33 33 33 33 31 28 27 28 29 29 30 31 31 31 30 30 30 29 31 31 28
26 24 23 23 24 26 26 25 24 22 21 22 23 23 23 23 23 22 22 21 19 20 21 22 23 24 25 26 24 23 24 25 26 24 24 26 26 26 25 24 26 28 30 29 27 26 26 27 27 27 26 26 26 27 29 29 26 24 24 25 26 29 34 36 35 34 34 34 34 35 35 35 33 30 29 30 30 33 35 36 35 34 33 33 33 34 33 30
28 27 25 24 24 25 26 26 26 24 23 24 24 23 23 24 23 23 23 20 18 18 20 22 23 23 24 24 23 24 24 24 24 23 24 26 26 25 24 25 27 29 29 28 26 25 26 27 28 28 27 27 27 28 29 27 24 21 21 23 24 26 31 36 38 37 37 36 36 37 38 38 37 34 31 30 30 31 34 36 36 36 35 34 34 35 33 33
29 28 27 26 25 24 24 27 27 26 25 25 25 24 24 24 25 25 22 18 17 19 21 23 24 25 24 22 22 23 23 23 24 22 23 25 25 24 24 25 26 28 29 27 25 24 25 25 26 26 26 25 25 25 24 22 19 18 18 20 22 24 27 31 36 39 39 39 38 39 40 39 40 37 33 31 31 30 30 32 34 34 34 34 34 35 35 35
29 29 28 28 28 25 26 28 27 26 26 27 27 26 25 26 26 24 21 19 19 20 22 23 25 26 25 24 24 24 24 25 25 22 21 22 23 23 22 23 25 27 28 26 24 23 24 24 24 25 23 22 21 21 21 19 18 18 18 19 20 22 24 28 32 37 39 40 41 41 41 40 40 38 33 31 30 30 30 32 33 33 34 35 36 36 36 36
29 28 28 29 29 27 29 30 27 26 27 28 29 28 28 28 26 22 20 22 22 23 25 26 27 27 26 26 26 27 27 27 26 24 22 22 22 22 22 24 26 26 27 26 24 23 23 23 24 23 21 19 18 19 20 20 20 19 18 19 21 22 24 26 29 33 36 38 40 41 42 42 42 39 34 30 29 28 28 30 33 34 35 36 37 36 35 32
28 27 27 28 28 29 32 33 30 28 28 29 30 31 30 29 25 21 20 22 23 25 27 27 27 27 27 28 28 28 29 28 27 26 25 24 24 24 24 26 28 27 27 27 25 25 23 23 24 22 19 19 18 17 19 21 23 21 19 19 22 23 25 25 26 28 32 34 37 39 39 41 42 39 34 30 28 28 28 28 30 32 34 36 36 35 33 30
28 26 26 27 28 30 34 36 33 31 30 30 30 32 31 28 25 22 21 22 24 26 27 26 25 25 26 27 27 29 30 29 28 27 26 26 26 25 24 26 28 29 28 28 27 26 24 22 23 22 21 22 19 19 21 22 21 21 21 21 21 23 25 25 24 25 27 29 31 33 33 34 35 33 31 28 27 27 27 27 27 29 30 32 33 34 32 30
29 27 25 26 28 32 35 36 35 33 31 32 33 33 28 25 25 23 23 24 26 26 26 26 26 25 25 25 26 29 30 29 29 29 28 28 27 26 24 23 25 26 26 27 27 27 24 22 22 23 24 24 21 22 23 22 21 20 21 22 22 23 24 24 24 24 24 25 26 27 28 29 30 28 28 26 25 26 26 25 26 28 29 31 33 34 33 32
31 29 27 27 28 31 34 35 35 34 33 34 35 33 29 26 25 25 25 27 27 28 28 27 27 27 26 26 27 29 30 30 31 32 32 32 31 29 26 24 24 24 23 23 24 25 24 22 22 23 25 25 23 23 23 23 24 22 21 22 22 23 24 24 24 23 23 22 21 22 24 26 28 29 28 25 24 25 25 25 25 26 27 29 31 31 31 32
30 31 31 29 28 30 31 30 32 34 34 36 37 34 31 29 26 25 27 28 29 31 30 28 28 29 28 28 28 30 31 30 31 32 33 33 31 28 26 25 26 24 23 23 23 23 23 22 21 22 23 23 23 22 22 24 25 23 21 22 22 23 24 25 24 23 23 21 19 19 20 22 25 26 26 24 23 23 24 24 24 23 23 24 25 25 26 29
29 32 32 30 29 30 29 28 29 32 34 36 36 35 32 30 28 27 28 29 31 31 30 29 30 30 29 29 29 30 30 30 30 31 31 31 30 27 26 26 26 26 25 26 26 26 25 22 21 21 21 22 22 22 22 23 23 22 23 24 24 24 25 25 24 24 23 22 20 19 19 21 22 22 22 20 20 21 22 23 24 24 23 21 21 22 22 23
28 30 31 30 31 32 31 29 30 31 32 32 33 33 33 31 30 30 30 31 32 32 31 30 30 31 31 31 31 30 29 28 30 32 32 31 30 28 27 27 27 28 28 29 30 29 28 24 21 20 21 21 22 23 23 24 24 23 25 27 27 26 26 25 24 24 24 23 22 21 20 20 21 21 21 20 20 20 21 22 23 24 24 23 23 23 23 22
29 29 29 30 32 34 33 32 32 31 30 29 29 31 33 33 32 32 32 33 33 33 32 31 31 32 32 32 32 31 30 27 27 31 32 31 31 28 28 29 29 28 27 29 31 31 29 27 24 20 20 23 24 25 25 26 25 26 29 29 29 29 28 26 26 26 26 26 25 24 23 22 22 21 21 21 22 22 22 22 22 23 23 24 24 24 24 24
30 30 28 29 31 33 34 34 34 33 31 29 29 29 31 32 33 33 34 36 35 34 33 32 33 33 34 34 33 33 33 30 26 27 29 31 31 30 30 31 31 29 27 28 30 31 30 29 26 22 22 25 27 27 27 28 27 29 30 29 27 28 28 27 27 28 28 28 28 27 26 25 24 23 22 22 22 23 23 22 22 22 22 22 23 22 22 23
29 30 29 28 30 32 34 35 35 34 33 31 30 29 29 30 32 34 37 38 38 36 35 35 35 35 35 35 34 33 34 34 30 27 27 29 31 32 31 32 32 30 29 29 30 30 31 30 28 24 23 27 29 29 30 31 31 31 30 27 25 26 27 28 28 28 28 29 29 28 28 27 26 25 24 23 22 21 22 23 24 23 23 23 23 22 22 23
26 28 27 27 29 30 33 35 34 35 35 34 33 32 30 30 31 35 38 40 39 38 38 39 39 39 39 37 36 35 35 35 34 30 28 28 30 31 31 31 30 30 30 31 31 31 31 31 30 27 26 28 30 30 31 33 31 29 28 28 28 28 29 29 29 28 29 30 30 30 30 30 29 28 27 25 23 22 21 22 23 24 24 24 23 23 23 23
22 24 24 24 27 29 31 33 34 34 35 35 35 33 31 30 31 34 37 40 40 40 40 42 42 42 41 40 38 37 35 35 35 34 32 30 29 31 31 31 30 29 29 30 32 33 33 33 33 31 29 30 30 29 30 32 32 29 28 29 30 30 30 30 30 29 30 30 30 31 31 30 29 28 28 26 25 24 24 23 23 23 24 25 26 26 25 25
19 22 23 23 24 27 29 31 33 36 36 35 35 34 32 31 31 32 35 38 40 41 42 43 44 43 43 42 41 40 37 35 35 36 36 33 31 32 32 32 32 31 30 29 30 32 34 35 35 34 32 31 31 30 30 31 32 30 30 30 31 31 32 31 31 31 31 31 31 31 31 30 29 28 28 28 28 28 28 27 27 27 28 29 30 29 28 28
16 20 24 26 25 26 26 26 29 33 33 33 33 32 32 31 29 30 33 36 39 41 43 45 45 45 44 43 43 43 41 38 37 37 37 36 35 35 35 35 34 33 32 31 29 30 31 31 32 33 32 31 31 31 30 29 29 29 29 30 30 31 31 32 32 32 32 32 33 33 32 31 31 30 30 31 31 31 30 30 29 29 29 29 29 30 29 29
12 17 24 29 28 26 25 25 28 30 30 30 32 31 31 31 30 30 31 34 37 40 43 45 46 46 45 44 44 44 43 41 38 38 38 38 38 38 38 38 37 37 36 34 33 31 30 29 30 31 32 31 30 29 28 27 28 28 29 30 30 30 31 32 33 33 33 34 35 35 35 34 34 33 33 33 33 33 33 33 32 31 30 29 29 29 28 27
9 14 22 29 30 27 24 21 23 28 29 29 30 31 31 30 30 30 31 32 35 38 42 45 46 46 45 45 45 45 43 40 37 36 37 38 40 41 41 40 40 39 38 37 36 35 35 34 33 32 32 31 30 31 32 33 34 35 35 35 35 35 35 36 36 37 37 38 38 39 39 38 38 37 37 37 37 38 38 37 36 35 33 32 32 32 31 31
8 10 19 26 30 30 27 20 17 21 25 26 28 30 31 30 30 30 30 31 33 36 39 43 46 46 45 44 45 45 44 41 38 36 35 36 38 41 43 44 43 42 40 38 38 38 39 39 37 35 35 36 37 39 41 41 41 40 39 39 39 39 39 39 40 41 41 40 41 41 41 41 42 42 41 40 40 41 40 40 40 39 38 37 36 36 36 37
10 5 14 22 26 28 28 26 21 18 19 22 24 27 29 30 30 31 31 30 31 33 36 39 43 45 45 44 44 45 45 43 41 39 38 37 36 37 39 41 41 41 40 40 41 42 42 42 42 42 42 44 45 45 46 45 44 43 43 42 41 40 40 39 40 43 43 43 42 42 43 43 44 44 44 43 43 42 42 42 42 43 43 42 41 40 40 40
12 4 8 17 22 24 26 28 25 20 17 17 18 21 23 24 26 28 30 31 31 31 32 35 38 41 43 43 42 43 44 43 42 41 40 40 40 40 40 40 40 40 40 42 43 44 44 44 45 45 45 46 46 46 46 46 46 45 45 45 44 42 41 40 40 42 43 45 45 44 44 44 44 44 44 43 42 42 42 43 44 45 47 47 46 46 45 45
Wind_Direction
258 257 258 258 257 257 257 257 256 256 255 254 253 252 250 249 249 250 251 251 253 254 255 255 256 257 257 257 258 258 259 259 259 258 258 258 258 257 257 257 257 256 256 256 255 255 254 254 254 254 255 255 254 255 255 256 257 258 258 257 257 254 248 244 234 223 222 222 220 221 220 218 217 220 221 222 226 229 233 239 246 252 257 263 268 273 279 282
257 257 258 258 257 257 257 258 257 256 255 255 254 253 252 251 250 250 250 251 251 253 254 255 256 256 257 258 258 259 260 260 260 260 260 259 259 258 258 257 256 256 255 254 255 255 255 255 256 256 256 256 256 257 257 258 259 259 259 258 256 248 243 241 232 223 220 220 220 221 221 219 216 218 223 224 229 233 236 240 246 252 257 261 267 273 279 283
256 257 257 257 257 257 257 258 258 257 256 255 255 254 253 252 251 250 250 250 251 252 253 254 254 255 256 257 258 259 260 260 261 261 261 260 259 259 258 257 255 255 255 254 254 254 255 255 256 256 255 256 255 255 256 257 258 258 259 259 250 238 238 238 233 224 218 218 220 222 222 222 220 220 224 229 234 237 239 242 247 253 257 262 267 272 278 283
256 257 258 258 257 257 258 258 258 258 257 256 255 254 254 253 252 251 250 250 250 251 252 253 253 254 255 257 258 259 260 260 260 260 260 259 259 257 256 255 254 254 253 252 252 252 253 254 254 254 253 252 253 254 254 255 256 256 256 254 244 237 236 237 237 230 223 220 221 224 224 223 226 230 235 239 241 243 243 245 250 256 259 263 268 273 275 280
255 257 258 259 258 257 258 259 259 259 258 257 256 255 254 253 253 252 251 251 251 252 252 252 253 253 254 256 258 259 259 258 258 258 258 257 257 256 255 253 252 251 251 250 250 250 251 251 251 251 251 250 252 254 253 252 253 252 252 248 243 240 233 234 239 235 231 228 225 227 229 229 231 237 246 251 252 254 255 256 256 257 262 270 275 275 273 276
254 256 258 258 258 258 259 260 261 260 260 258 257 255 254 253 253 252 251 251 251 252 252 251 252 252 253 255 257 258 258 257 257 257 256 256 255 255 254 252 251 250 249 248 248 248 249 249 249 248 248 249 250 251 248 249 251 249 246 242 242 239 230 232 239 238 238 237 232 231 234 237 238 242 250 255 259 263 262 261 257 258 267 276 279 278 274 276
254 255 256 257 258 258 259 260 261 261 260 259 257 256 254 253 252 251 251 250 250 251 251 250 250 251 252 254 255 255 254 255 255 255 256 255 255 254 253 252 250 248 248 247 246 246 246 245 245 245 245 245 244 242 243 246 248 247 243 239 239 239 233 232 238 241 242 243 238 235 237 241 244 247 249 251 258 263 259 257 257 261 270 276 278 278 276 277
254 254 256 256 257 258 259 260 261 261 260 259 258 256 254 253 251 250 250 249 249 249 249 248 248 250 251 251 250 249 250 252 252 252 254 255 255 254 253 252 250 248 247 246 245 244 243 242 242 242 241 242 241 240 243 247 248 247 245 242 242 244 240 234 239 243 244 245 243 240 240 241 245 246 244 248 258 262 258 258 259 263 269 275 277 279 279 279
253 254 255 256 257 258 259 261 262 261 261 260 258 256 254 252 251 249 248 248 248 248 247 246 247 248 248 246 245 246 248 249 250 251 252 254 255 254 253 252 250 248 246 244 243 240 239 238 238 240 243 246 247 247 249 253 253 250 247 247 248 249 247 241 243 247 248 249 248 248 246 244 245 244 245 251 259 261 260 262 262 265 270 273 278 282 282 278
253 254 255 256 257 258 260 262 262 262 261 259 257 255 253 252 250 248 247 247 247 246 244 244 245 245 244 243 242 245 246 248 251 253 254 255 256 255 253 251 249 247 245 242 239 237 237 238 240 244 247 250 250 250 251 252 254 251 249 251 252 251 249 246 245 248 251 252 252 254 251 249 247 248 251 255 259 260 259 260 262 264 268 273 280 281 278 275
253 254 255 256 257 258 260 261 262 261 260 258 256 254 252 251 249 247 246 245 245 243 242 242 243 243 241 241 241 244 246 247 248 252 255 256 257 257 255 252 249 246 244 241 239 239 240 241 243 246 247 248 248 249 251 251 251 251 250 252 253 253 252 251 248 248 251 253 253 254 252 251 252 254 256 257 257 256 254 257 260 264 270 274 276 274 272 271
254 254 255 256 257 259 260 260 260 260 258 256 254 252 250 249 247 245 244 243 243 241 240 241 241 240 239 239 240 242 245 245 246 248 251 254 256 257 257 254 250 246 243 242 241 240 240 241 242 244 245 247 248 248 249 249 249 250 250 251 252 253 253 252 248 246 247 248 249 251 251 250 249 250 251 252 252 251 252 256 260 264 267 268 266 266 265 265
255 255 255 257 258 259 259 259 259 258 257 255 252 250 249 247 246 244 242 241 240 239 239 239 239 238 238 239 240 242 244 244 245 247 249 250 251 254 255 253 249 245 243 241 238 237 238 237 237 238 240 242 245 246 246 246 246 248 249 250 251 250 248 246 244 244 244 246 246 248 250 247 243 245 246 248 250 250 252 255 258 260 260 259 258 259 260 266
256 256 256 257 258 258 258 258 257 256 255 253 251 249 248 246 245 242 240 237 236 237 238 238 238 237 238 239 238 241 245 244 244 246 249 250 250 250 250 249 246 242 241 239 238 238 238 236 235 234 232 233 238 241 242 242 242 244 245 246 246 245 244 245 246 247 245 243 242 245 249 244 240 244 247 249 252 252 252 254 255 254 254 254 254 255 261 268
258 257 257 258 258 258 257 257 256 256 254 252 250 249 248 246 243 240 237 235 235 236 237 237 237 237 238 239 236 238 244 246 244 244 248 250 250 248 247 247 244 241 240 239 239 239 239 237 235 234 230 228 231 235 237 238 238 237 239 240 240 242 246 248 249 247 243 240 239 241 242 240 239 242 246 249 252 251 250 251 252 251 251 250 251 255 261 264
259 258 258 258 258 257 257 256 256 255 253 251 249 248 247 245 241 237 235 234 235 236 237 237 237 238 239 240 237 236 242 246 247 245 246 248 249 247 246 245 244 243 241 239 239 239 239 236 234 234 233 231 231 232 234 236 234 232 234 237 239 243 244 242 243 243 242 242 239 238 237 236 238 240 243 247 249 249 248 247 247 246 245 244 247 255 258 258
262 260 259 258 257 257 256 256 255 254 253 250 248 246 245 242 239 236 233 233 234 236 237 238 238 239 240 241 239 236 239 243 246 247 247 247 248 247 246 246 245 244 242 240 240 239 238 236 234 234 235 235 234 232 233 233 231 230 233 235 237 239 237 233 234 235 234 232 231 235 236 237 239 240 244 247 247 246 245 244 241 240 241 243 249 258 261 263
266 263 261 259 258 257 256 256 254 253 252 250 247 245 243 241 238 236 234 232 233 234 236 238 238 240 242 243 243 240 239 242 246 249 249 247 247 247 246 245 245 244 242 241 240 239 238 235 234 234 234 237 236 233 231 231 229 228 230 230 230 233 232 224 218 220 222 221 223 231 235 236 240 243 244 246 246 242 239 239 239 240 247 255 259 265 277 284
269 266 264 262 260 259 257 256 255 253 252 250 248 245 242 240 238 236 235 234 233 233 235 237 238 241 243 243 245 244 241 241 244 247 249 249 247 246 245 244 243 242 241 239 238 239 239 238 236 233 231 232 232 229 228 229 227 226 225 224 225 229 228 218 208 213 220 221 223 229 233 234 237 241 243 244 245 240 239 241 240 241 257 266 269 278 294 301
271 269 267 264 262 260 258 257 256 254 252 251 248 245 243 241 239 238 236 235 235 235 236 237 239 243 244 243 244 244 242 241 241 243 246 248 247 245 245 244 243 241 240 239 237 238 240 240 238 235 230 228 226 225 227 228 226 224 221 219 223 226 223 215 207 208 217 222 227 232 236 236 230 228 231 239 242 242 245 246 241 242 259 266 275 287 293 299
272 269 268 267 265 262 259 257 256 254 253 251 250 248 246 244 241 239 237 236 236 237 238 238 240 245 247 248 247 244 244 244 242 242 243 245 247 246 244 243 242 240 239 238 236 235 235 233 233 233 233 232 230 229 231 230 228 226 221 219 223 224 221 216 207 208 217 217 218 226 234 235 230 224 224 236 249 255 256 252 248 249 259 270 282 287 280 282
273 270 268 268 267 265 263 260 257 255 253 252 252 252 250 247 244 240 238 238 238 238 239 240 242 245 246 247 247 245 246 247 243 241 241 243 246 246 244 241 240 239 239 237 234 231 230 229 228 229 231 232 232 233 234 232 231 229 223 220 222 223 223 220 210 212 221 213 203 207 217 228 235 238 242 250 260 267 264 261 259 257 261 273 284 291 287 277
272 271 269 267 266 266 265 263 261 258 256 254 255 255 254 250 246 242 240 239 240 239 239 241 243 245 247 247 248 246 245 246 244 241 240 241 244 246 245 242 241 241 238 234 230 228 227 228 230 228 227 227 227 228 230 227 227 228 222 218 222 223 221 220 215 212 219 216 203 199 206 222 236 245 255 260 263 264 261 261 263 264 267 275 283 291 293 285
268 268 268 267 265 264 264 264 263 261 260 258 257 256 254 251 247 244 242 241 242 241 239 241 244 246 247 246 244 243 243 244 245 243 241 240 243 245 245 244 243 241 236 231 229 229 228 229 232 232 229 227 226 226 228 225 221 223 220 217 223 225 220 221 221 215 216 217 211 205 207 220 235 244 253 259 261 257 254 256 262 268 271 274 279 285 290 292
266 265 265 266 265 265 263 263 262 262 261 259 257 256 254 252 250 248 246 243 243 244 241 240 242 244 245 244 243 243 242 243 245 245 242 241 242 243 244 244 242 238 235 231 229 229 230 231 233 235 234 232 231 229 229 227 220 219 218 217 222 226 223 223 222 217 215 216 216 212 208 217 232 242 247 251 255 251 248 251 257 264 268 270 274 280 286 292
267 264 262 262 263 264 263 262 262 261 262 260 256 253 252 251 250 249 248 245 243 244 242 239 240 241 244 245 243 242 240 240 242 242 241 241 241 242 243 243 239 237 236 234 229 227 229 231 233 235 236 235 235 232 230 228 224 223 220 217 221 227 228 227 223 216 213 215 218 215 212 216 227 238 243 245 248 248 248 250 254 259 265 268 272 276 282 287
267 265 263 260 259 261 262 263 262 262 263 261 254 251 250 250 250 248 247 246 244 244 242 240 239 240 243 244 241 241 240 239 241 241 241 242 242 242 242 241 238 237 238 237 231 227 229 231 232 234 235 234 236 238 236 232 228 228 226 220 220 226 229 229 227 220 213 215 219 220 219 220 221 227 236 240 242 245 249 251 255 259 263 266 269 272 276 280
264 265 264 261 258 258 259 261 262 262 261 258 254 252 251 252 251 249 247 246 243 243 242 240 239 240 243 245 244 243 241 239 240 240 240 241 241 241 240 237 236 236 237 236 231 227 230 232 232 233 233 232 234 238 239 236 232 229 228 225 222 224 227 229 229 226 221 219 221 224 227 227 225 224 231 239 240 243 247 248 252 258 262 264 265 269 271 274
260 262 263 263 260 258 257 257 259 259 258 256 253 252 253 254 253 252 249 246 241 241 242 240 239 240 242 244 243 241 239 238 239 238 238 240 239 239 236 232 233 235 237 235 229 226 227 230 232 234 233 231 231 234 238 239 236 231 229 230 227 224 226 228 229 230 230 228 227 231 233 235 235 231 231 239 243 244 247 248 250 254 259 259 260 263 266 270
258 258 259 262 262 259 257 255 254 255 255 255 254 252 251 252 252 252 250 248 244 242 243 241 239 238 239 240 239 238 237 238 239 237 237 239 236 233 230 228 230 233 234 232 225 224 224 226 232 235 235 234 233 234 237 239 240 236 233 235 234 229 228 229 230 231 234 235 235 237 239 240 241 238 235 239 245 246 248 250 252 253 255 255 256 259 264 269
258 256 256 258 259 259 258 255 252 251 251 253 254 252 249 247 247 247 248 247 244 241 241 241 240 238 236 233 232 235 234 231 233 230 230 234 233 228 225 224 227 230 233 229 222 223 226 228 232 236 238 239 239 240 241 242 244 245 245 243 241 237 232 232 233 234 236 238 238 240 242 243 244 245 243 242 245 247 249 251 252 252 253 254 256 258 263 267
260 256 254 254 256 256 256 254 252 248 247 248 250 251 249 246 245 245 245 245 242 240 239 239 239 238 235 231 228 229 230 228 228 225 223 227 230 228 221 217 220 225 230 228 220 222 230 234 236 237 239 242 244 246 248 249 250 253 254 249 244 241 237 235 236 236 238 240 241 243 245 246 248 251 252 249 248 250 250 249 249 249 249 251 253 256 259 263
262 258 254 252 253 252 252 253 251 247 245 244 246 247 248 247 247 245 245 245 242 241 241 240 241 241 240 236 228 224 225 227 228 225 221 222 224 224 217 212 216 220 223 224 218 219 230 236 238 239 242 245 246 249 253 257 259 259 257 250 244 242 240 238 238 239 241 242 244 246 247 250 252 255 257 254 251 251 248 245 245 245 244 246 249 252 255 258
265 261 255 251 250 249 249 250 248 246 245 244 243 244 244 246 248 247 244 243 241 241 241 241 242 242 241 239 232 226 223 223 226 225 219 218 220 222 221 219 221 221 220 220 219 223 229 233 238 240 241 244 247 250 256 259 260 259 255 246 241 241 242 242 242 242 241 242 243 246 247 249 251 254 256 252 248 249 246 241 240 242 242 244 246 250 252 253
265 262 257 252 249 247 247 249 247 245 244 244 244 243 243 244 246 244 238 236 237 239 239 238 238 238 237 236 234 231 225 218 220 223 220 218 217 220 223 224 226 224 221 222 225 228 230 230 237 240 239 240 241 245 249 250 250 252 249 243 239 240 244 246 246 245 244 243 244 245 247 248 249 251 252 249 244 245 244 242 241 242 243 244 245 248 251 252
262 260 257 251 247 245 246 247 247 244 243 243 244 244 243 241 241 239 233 232 235 238 239 238 237 236 237 236 230 228 226 218 216 219 220 220 218 217 219 221 224 225 222 224 229 232 233 234 239 241 242 241 238 240 242 236 233 239 240 239 238 239 243 246 248 249 249 249 249 250 252 252 250 249 248 247 243 243 245 246 246 247 246 248 249 250 252 253
259 256 253 250 248 248 248 248 248 246 243 242 243 243 241 237 236 234 232 232 233 236 237 236 235 235 237 238 231 226 225 221 218 219 220 221 221 219 217 216 218 221 222 224 229 231 232 234 236 239 242 241 236 237 237 230 228 230 230 234 237 238 242 245 247 251 251 249 250 252 255 255 254 251 250 249 247 246 248 248 250 251 250 252 252 250 251 253
258 254 250 248 248 250 251 250 249 248 245 243 243 243 239 235 233 231 231 232 233 234 235 233 232 233 235 236 234 229 223 218 219 222 222 224 224 222 219 217 218 220 221 224 227 229 228 227 230 234 237 237 236 237 237 234 231 226 225 232 234 233 240 244 245 249 252 252 253 252 251 253 255 254 253 251 248 248 249 249 250 253 254 256 253 248 251 255
258 254 250 246 245 247 248 247 246 246 245 243 243 242 239 236 232 229 228 231 233 234 234 232 228 229 232 234 233 229 223 219 220 221 220 223 225 223 219 219 220 221 223 226 227 228 228 225 226 230 232 235 237 236 238 237 230 222 223 231 232 231 235 242 245 248 252 253 254 252 250 251 254 257 257 254 251 250 249 249 249 251 253 256 254 252 255 257
260 256 252 246 242 242 243 243 242 243 244 244 244 242 239 233 229 227 225 228 232 233 232 230 227 226 230 234 233 229 225 225 226 223 219 219 222 221 218 218 221 222 225 228 229 230 230 225 221 225 229 232 234 231 230 233 234 232 230 230 233 234 235 239 246 251 254 255 256 257 258 256 255 257 259 260 259 258 255 253 251 251 254 256 257 256 256 254
262 257 252 246 241 240 240 240 241 242 243 244 243 241 238 232 226 224 224 224 229 231 230 228 226 225 228 233 236 233 228 228 229 227 221 216 215 217 218 219 222 223 225 228 231 233 234 229 222 222 226 227 229 228 225 228 235 240 236 231 232 234 236 240 246 251 253 253 254 260 263 262 260 259 261 261 261 261 260 259 258 257 259 259 256 254 253 254
260 257 253 247 242 239 238 238 239 240 241 242 242 241 239 234 226 222 223 223 224 227 229 228 227 226 227 230 235 236 234 231 226 222 219 213 211 213 217 220 222 223 223 226 232 236 238 236 228 223 225 224 222 225 227 229 234 239 239 234 231 234 240 248 253 255 254 252 252 256 259 261 263 264 265 264 261 261 261 261 260 259 259 259 257 255 256 257
258 254 251 248 243 239 237 236 236 238 238 239 241 241 239 235 226 220 221 222 222 223 225 227 228 228 228 229 232 235 236 235 228 219 216 216 215 215 218 222 225 226 226 227 232 236 240 243 237 228 227 226 221 222 225 228 230 233 235 233 232 237 244 252 257 258 258 256 253 253 256 260 265 267 267 267 265 265 266 264 261 260 260 262 263 264 263 264
261 251 248 247 245 240 238 237 236 236 236 236 238 239 239 235 227 221 220 223 222 221 222 226 227 227 228 229 231 233 236 238 234 226 221 222 224 222 220 223 226 229 231 231 232 235 239 243 242 237 233 231 228 227 229 231 233 232 232 234 238 244 248 252 255 257 258 258 258 258 260 263 265 266 266 265 263 265 268 268 264 262 262 263 266 269 270 270
264 247 238 241 246 243 238 237 236 235 235 234 235 237 239 236 229 223 221 224 223 220 220 224 227 227 228 228 229 231 233 237 238 235 231 229 230 229 228 227 227 229 233 234 234 236 237 239 242 242 239 237 236 236 237 240 242 241 238 240 245 249 250 251 253 255 256 257 260 263 265 266 267 268 269 268 267 268 270 270 267 266 266 267 268 269 271 271
269 243 225 225 238 242 237 235 235 235 235 234 235 235 236 237 234 228 224 224 224 221 220 223 226 228 229 229 229 229 230 233 237 240 239 236 234 233 233 232 231 231 232 235 237 238 238 238 239 241 242 241 240 239 238 239 241 242 242 244 247 250 252 255 257 259 260 260 261 263 264 265 266 268 269 269 269 269 270 270 268 267 268 269 270 270 270 270
275 240 218 210 219 231 234 233 233 234 234 233 233 234 233 235 235 232 228 225 225 224 223 223 226 228 230 231 231 231 231 233 235 238 241 240 238 237 237 236 235 235 235 237 239 241 242 241 240 241 242 242 240 238 234 231 232 235 239 242 245 248 252 255 259 261 263 263 263 264 264 264 265 265 266 266 267 267 268 267 267 267 268 269 270 272 272 269
283 237 217 206 207 220 230 231 231 234 235 233 233 234 234 234 234 232 230 227 226 226 225 226 227 229 230 232 233 233 234 235 237 238 240 241 242 241 241 240 240 240 241 243 245 247 248 248 247 248 248 246 244 242 239 238 241 245 246 244 244 248 252 256 258 260 262 264 265 266 267 268 267 267 267 268 269 269 269 268 267 266 265 266 266 268 270 268
300 235 217 207 206 213 220 225 233 237 236 235 235 236 235 233 233 233 232 229 227 227 227 227 229 230 230 231 233 235 236 236 237 239 241 243 243 243 243 243 243 243 244 247 249 251 251 249 247 247 248 248 248 251 255 258 261 261 259 254 252 254 256 258 259 260 261 263 265 267 269 269 270 269 269 270 270 271 271 270 268 267 266 265 264 264 266 268
327 236 217 211 210 213 215 219 233 240 239 240 239 237 235 233 232 233 233 230 228 228 228 229 230 231 231 231 233 235 237 237 236 237 240 242 244 244 243 243 244 245 246 248 250 251 251 250 249 248 250 253 255 258 263 265 265 264 262 260 258 258 258 257 256 256 257 259 261 262 264 266 267 268 268 268 269 269 270 270 270 270 270 269 267 265 265 266
354 251 218 215 214 215 216 219 225 229 232 239 243 241 238 234 231 231 233 232 229 229 230 231 232 233 233 233 233 234 237 239 239 238 239 241 245 246 246 245 245 247 249 251 252 252 251 252 253 254 255 257 258 259 261 262 263 262 262 261 260 259 258 255 252 251 251 253 254 255 257 260 262 264 266 267 267 268 268 268 270 271 272 274 274 273 270 267
6 341 226 219 219 218 217 219 221 218 212 217 231 243 245 241 235 232 232 233 233 233 234 234 235 236 237 237 236 237 238 241 242 242 243 244 246 248 250 252 252 253 253 253 252 251 251 252 253 254 255 256 257 257 258 259 260 260 261 261 261 260 258 256 252 249 248 248 248 249 251 254 257 260 262 264 264 265 265 266 267 269 272 275 277 278 276 274